Mansfield, OH

4:48 AM EDT on October 21, 2019 (GMT -0400)
Mansfield Lahm Regional

Weather History for KMFD - September, 2019

Change the Weather History Date:

Tuesday, September 17, 2019

  Actual Average Record
Temperature  
Mean Temperature 70 °F 63 °F  
Max Temperature 79 °F 73 °F 91 °F (1955)
Min Temperature 60 °F 52 °F 29 °F (1959)
Degree Days  
Heating Degree Days 0 4  
Month to date heating degree days 4 41  
Since 1 July heating degree days 4 66  
Cooling Degree Days 5 2  
Month to date cooling degree days 93 48  
Year to date cooling degree days 871 610  
Growing Degree Days 18 (Base 50)    
Moisture  
Dew Point 62 °F    
Average Humidity 78    
Maximum Humidity 100    
Minimum Humidity 56    
Precipitation  
Precipitation 0.00 in 0.11 in 1.23 in (1969)
Month to date precipitation 1.77 1.94  
Year to date precipitation 38.15 32.77  
Snow  
Snow 0.00 in 0.00 in - ()
Month to date snowfall 0.0 0.0  
Since 1 July snowfall 0.0 0.0  
Since 1 September snowfall 0.0 0.0  
Snow Depth 0.00 in    
Sea Level Pressure  
Sea Level Pressure 30.15 in    
Wind  
Wind Speed 8 mph (NNE)    
Max Wind Speed 17 mph    
Max Gust Speed 21 mph    
Visibility 6 miles    
Events      
T = Trace of Precipitation, MM = Missing Value Source: NWS Daily Summary

Daily Weather History Graph

Daily Weather History Graph

Search for Another Location

Airport or City:

Astronomy

Sep. 17, 2019 Rise Set
Actual Time 7:12 AM EDT 7:36 PM EDT
Civil Twilight 6:44 AM EDT 8:03 PM EDT
Nautical Twilight 6:12 AM EDT 8:35 PM EDT
Astronomical Twilight 5:39 AM EDT 9:08 PM EDT
Moon 9:37 PM EDT (9/17) 10:16 AM EDT (9/17)
Length of Visible Light 13h 18m
Length of Day
12h 23m
Waning Gibbous, 89% of the Moon is Illuminated
Sep 17
Waning Gibbous
Sep 21
Last Quarter
Sep 28
New
Oct 5
First Quarter
Oct 13
Full

Hourly Weather History & Observations

Time (EDT) Temp. Dew Point Humidity Pressure Visibility Wind Dir Wind Speed Gust Speed Precip Events Conditions
12:52 AM 64.9 °F 63.0 °F 93% 30.11 in 7.0 mi North 5.8 mph - N/A   Clear
1:20 AM 64.9 °F 64.0 °F 97% 30.13 in 5.0 mi North 6.9 mph - N/A   Scattered Clouds
1:28 AM 64.9 °F 64.0 °F 97% 30.13 in 5.0 mi NNE 8.1 mph - N/A   Mostly Cloudy
1:52 AM 64.9 °F 64.9 °F 100% 30.11 in 2.5 mi NNE 8.1 mph - N/A   Overcast
2:03 AM 64.9 °F 64.9 °F 100% 30.13 in 3.0 mi NE 8.1 mph - N/A   Overcast
2:36 AM 64.0 °F 64.0 °F 100% 30.13 in 4.0 mi NNE 5.8 mph - N/A   Scattered Clouds
2:52 AM 64.0 °F 63.0 °F 96% 30.10 in 6.0 mi NE 5.8 mph - N/A   Clear
3:52 AM 62.1 °F 62.1 °F 100% 30.11 in 2.5 mi NNW 4.6 mph - N/A   Clear
3:54 AM 62.1 °F 62.1 °F 100% 30.13 in 1.2 mi NNW 4.6 mph - N/A   Partly Cloudy
3:56 AM 61.0 °F 61.0 °F 100% 30.13 in 0.8 mi NNW 4.6 mph - N/A   Unknown
4:00 AM 61.0 °F 61.0 °F 100% 30.13 in 0.2 mi NNW 4.6 mph - N/A   Unknown
4:27 AM 60.1 °F 60.1 °F 100% 30.13 in 1.0 mi North 4.6 mph - N/A   Unknown
4:34 AM 62.1 °F 61.0 °F 96% 30.13 in 3.0 mi North 5.8 mph - N/A   Scattered Clouds
4:52 AM 63.0 °F 62.1 °F 97% 30.10 in 4.0 mi North 6.9 mph - N/A   Clear
5:52 AM 62.1 °F 62.1 °F 100% 30.11 in 4.0 mi North 6.9 mph - N/A   Clear
6:52 AM 62.1 °F 62.1 °F 100% 30.13 in 4.0 mi NNE 8.1 mph - N/A   Clear
7:26 AM 62.1 °F 62.1 °F 100% 30.16 in 2.5 mi North 9.2 mph - N/A   Clear
7:34 AM 62.1 °F 62.1 °F 100% 30.17 in 2.5 mi North 9.2 mph - N/A   Scattered Clouds
7:43 AM 63.0 °F 62.1 °F 97% 30.17 in 3.0 mi North 9.2 mph - N/A   Mostly Cloudy
7:52 AM 63.0 °F 62.1 °F 97% 30.15 in 3.0 mi North 11.5 mph - N/A   Mostly Cloudy
8:52 AM 64.0 °F 64.0 °F 100% 30.17 in 4.0 mi North 10.4 mph - N/A   Overcast
9:11 AM 64.9 °F 64.0 °F 97% 30.19 in 5.0 mi NNE 9.2 mph - N/A   Overcast
9:52 AM 66.9 °F 64.9 °F 93% 30.18 in 8.0 mi NNE 10.4 mph - N/A   Scattered Clouds
10:52 AM 70.0 °F 63.0 °F 78% 30.18 in 10.0 mi NE 10.4 mph - N/A   Scattered Clouds
11:52 AM 73.0 °F 63.0 °F 71% 30.19 in 10.0 mi NNE 11.5 mph - N/A   Scattered Clouds
12:06 PM 73.9 °F 63.0 °F 68% 30.20 in 10.0 mi NE 12.7 mph - N/A   Mostly Cloudy
12:16 PM 73.0 °F 62.1 °F 68% 30.20 in 10.0 mi NNE 10.4 mph - N/A   Scattered Clouds
12:52 PM 73.0 °F 62.1 °F 68% 30.18 in 10.0 mi NE 12.7 mph - N/A   Partly Cloudy
1:52 PM 75.9 °F 62.1 °F 62% 30.17 in 10.0 mi NE 6.9 mph - N/A   Clear
2:52 PM 77.0 °F 61.0 °F 58% 30.15 in 10.0 mi ENE 9.2 mph - N/A   Partly Cloudy
3:52 PM 77.0 °F 60.1 °F 56% 30.13 in 10.0 mi NNE 5.8 mph - N/A   Mostly Cloudy
4:52 PM 75.9 °F 60.1 °F 58% 30.13 in 10.0 mi NNE 6.9 mph - N/A   Partly Cloudy
5:52 PM 77.0 °F 60.1 °F 56% 30.13 in 10.0 mi NE 9.2 mph - N/A   Scattered Clouds
6:52 PM 71.1 °F 63.0 °F 75% 30.13 in 10.0 mi North 11.5 mph - N/A   Scattered Clouds
7:52 PM 68.0 °F 63.0 °F 84% 30.14 in 10.0 mi North 9.2 mph - N/A   Clear
8:52 PM 66.0 °F 62.1 °F 87% 30.15 in 10.0 mi NNE 10.4 mph - N/A   Clear
9:52 PM 64.0 °F 60.1 °F 87% 30.15 in 10.0 mi NNE 6.9 mph - N/A   Clear
10:52 PM 62.1 °F 57.9 °F 86% 30.16 in 10.0 mi NE 6.9 mph - N/A   Clear
11:52 PM 62.1 °F 57.9 °F 86% 30.16 in 10.0 mi ENE 6.9 mph - N/A   Clear